• In Switzerland
  • List of Countries
  • For 7 days
  • Water Temperature
  • Satellite Maps
  • Weather Map
  • Weather Widgets
  • user-avatar
    Login

    Hourly Weather Mulhule

    Today, 17 December, Sunday

    Time Temperature Precipitation Wind Pressure Humidity
    00:00 +26°C° 0 mm 6 mps 761 mmHg 74%
    01:00 +26°C° 0 mm 6 mps 761 mmHg 76%
    02:00 +26°C° 0 mm 6 mps 761 mmHg 78%
    03:00 +25°C° 0 mm 5 mps 761 mmHg 80%
    04:00 +25°C° 0 mm 5 mps 761 mmHg 81%
    05:00 +25°C° 0 mm 5 mps 761 mmHg 83%
    06:00 +25°C° 0 mm 5 mps 761 mmHg 84%
    07:00 +26°C° 0 mm 6 mps 762 mmHg 77%
    08:00 +27°C° 0 mm 6 mps 762 mmHg 70%
    09:00 +29°C° 0 mm 7 mps 762 mmHg 60%
    10:00 +30°C° 0 mm 7 mps 762 mmHg 56%
    11:00 +32°C° 0 mm 7 mps 762 mmHg 53%
    12:00 +33°C° 0 mm 8 mps 762 mmHg 49%
    13:00 +33°C° 0 mm 8 mps 761 mmHg 49%
    14:00 +33°C° 0 mm 8 mps 760 mmHg 50%
    15:00 +32°C° 0 mm 8 mps 760 mmHg 51%
    16:00 +31°C° 0 mm 8 mps 760 mmHg 55%
    17:00 +29°C° 0 mm 8 mps 760 mmHg 59%
    18:00 +28°C° 0 mm 8 mps 760 mmHg 64%
    19:00 +28°C° 0 mm 8 mps 761 mmHg 66%
    20:00 +28°C° 0 mm 8 mps 761 mmHg 68%
    21:00 +27°C° 0 mm 8 mps 762 mmHg 70%
    22:00 +27°C° 0 mm 7 mps 762 mmHg 71%
    23:00 +27°C° 0 mm 7 mps 762 mmHg 73%

    Tomorrow, 18 December, Monday

    Time Temperature Precipitation Wind Pressure Humidity
    00:00 +26°C° 0 mm 7 mps 762 mmHg 74%
    01:00 +26°C° 0 mm 7 mps 762 mmHg 76%
    02:00 +26°C° 0 mm 7 mps 762 mmHg 77%
    03:00 +26°C° 0 mm 7 mps 762 mmHg 78%
    04:00 +24°C° 0 mm 7 mps 762 mmHg 79%
    05:00 +24°C° 0 mm 7 mps 762 mmHg 80%
    06:00 +24°C° 0 mm 7 mps 762 mmHg 81%
    07:00 +26°C° 0 mm 7 mps 763 mmHg 74%
    08:00 +27°C° 0 mm 7 mps 763 mmHg 68%
    09:00 +29°C° 0 mm 8 mps 764 mmHg 61%
    10:00 +31°C° 0 mm 8 mps 763 mmHg 56%
    11:00 +32°C° 0 mm 8 mps 763 mmHg 52%
    12:00 +33°C° 0 mm 9 mps 762 mmHg 47%
    13:00 +32°C° 0 mm 9 mps 762 mmHg 47%
    14:00 +32°C° 0 mm 9 mps 761 mmHg 48%
    15:00 +32°C° 0 mm 9 mps 760 mmHg 48%
    16:00 +31°C° 0 mm 8 mps 760 mmHg 53%
    17:00 +29°C° 0 mm 8 mps 761 mmHg 58%
    18:00 +28°C° 0 mm 8 mps 761 mmHg 62%
    19:00 +28°C° 0 mm 8 mps 761 mmHg 64%
    20:00 +27°C° 0 mm 8 mps 762 mmHg 66%
    21:00 +27°C° 0 mm 8 mps 762 mmHg 68%
    22:00 +27°C° 0 mm 8 mps 762 mmHg 70%
    23:00 +27°C° 0 mm 8 mps 762 mmHg 72%

    Day after tomorrow, 19 December, Tuesday

    Time Temperature Precipitation Wind Pressure Humidity
    00:00 +26°C° 0 mm 8 mps 762 mmHg 73%
    01:00 +26°C° 0 mm 7 mps 762 mmHg 74%
    02:00 +26°C° 0 mm 7 mps 762 mmHg 75%
    03:00 +26°C° 0 mm 7 mps 761 mmHg 76%
    04:00 +26°C° 0 mm 7 mps 762 mmHg 77%
    05:00 +24°C° 0 mm 7 mps 762 mmHg 79%
    06:00 +24°C° 0 mm 7 mps 762 mmHg 80%
    07:00 +26°C° 0 mm 8 mps 763 mmHg 73%
    08:00 +27°C° 0 mm 8 mps 763 mmHg 66%
    09:00 +28°C° 0 mm 9 mps 764 mmHg 59%
    10:00 +29°C° 0 mm 9 mps 764 mmHg 54%
    11:00 +31°C° 0 mm 9 mps 763 mmHg 49%
    12:00 +32°C° 0 mm 9 mps 763 mmHg 44%
    13:00 +32°C° 0 mm 9 mps 762 mmHg 43%
    14:00 +32°C° 0 mm 9 mps 761 mmHg 42%
    15:00 +32°C° 0 mm 9 mps 761 mmHg 41%
    16:00 +31°C° 0 mm 9 mps 761 mmHg 45%
    17:00 +29°C° 0 mm 8 mps 761 mmHg 49%
    18:00 +28°C° 0 mm 8 mps 761 mmHg 52%
    19:00 +28°C° 0 mm 8 mps 762 mmHg 54%
    20:00 +27°C° 0 mm 8 mps 763 mmHg 56%
    21:00 +27°C° 0 mm 8 mps 763 mmHg 58%
    22:00 +27°C° 0 mm 7 mps 763 mmHg 58%
    23:00 +26°C° 0 mm 7 mps 763 mmHg 58%

    20 December, Wednesday

    Time Temperature Precipitation Wind Pressure Humidity
    00:00 +26°C° 0 mm 7 mps 763 mmHg 59%
    01:00 +26°C° 0 mm 7 mps 763 mmHg 58%
    02:00 +24°C° 0 mm 7 mps 762 mmHg 57%
    03:00 +24°C° 0 mm 7 mps 762 mmHg 56%
    04:00 +24°C° 0 mm 7 mps 762 mmHg 56%
    05:00 +24°C° 0 mm 7 mps 763 mmHg 57%
    06:00 +23°C° 0 mm 6 mps 763 mmHg 57%
    07:00 +26°C° 0 mm 7 mps 764 mmHg 53%
    08:00 +27°C° 0 mm 8 mps 764 mmHg 48%
    09:00 +28°C° 0 mm 8 mps 765 mmHg 44%
    10:00 +29°C° 0 mm 8 mps 764 mmHg 40%
    11:00 +31°C° 0 mm 8 mps 764 mmHg 37%
    12:00 +32°C° 0 mm 9 mps 764 mmHg 33%
    13:00 +32°C° 0 mm 9 mps 763 mmHg 35%
    14:00 +32°C° 0 mm 9 mps 762 mmHg 36%
    15:00 +32°C° 0 mm 9 mps 761 mmHg 37%
    16:00 +31°C° 0 mm 8 mps 762 mmHg 41%
    17:00 +29°C° 0 mm 8 mps 762 mmHg 44%
    18:00 +28°C° 0 mm 8 mps 762 mmHg 48%
    19:00 +27°C° 0 mm 8 mps 763 mmHg 51%
    20:00 +27°C° 0 mm 7 mps 764 mmHg 53%
    21:00 +27°C° 0 mm 7 mps 764 mmHg 56%
    22:00 +26°C° 0 mm 7 mps 764 mmHg 58%
    23:00 +26°C° 0 mm 7 mps 764 mmHg 61%

    21 December, Thursday

    Time Temperature Precipitation Wind Pressure Humidity
    00:00 +26°C° 0 mm 7 mps 764 mmHg 63%
    01:00 +26°C° 0 mm 7 mps 764 mmHg 64%
    02:00 +24°C° 0 mm 7 mps 764 mmHg 65%
    03:00 +24°C° 0 mm 7 mps 763 mmHg 66%
    04:00 +24°C° 0 mm 7 mps 764 mmHg 66%
    05:00 +24°C° 0 mm 7 mps 764 mmHg 67%
    06:00 +24°C° 0 mm 7 mps 764 mmHg 67%
    07:00 +26°C° 0 mm 7 mps 765 mmHg 62%
    08:00 +27°C° 0 mm 8 mps 765 mmHg 57%
    09:00 +28°C° 0 mm 9 mps 765 mmHg 51%
    10:00 +29°C° 0 mm 9 mps 765 mmHg 48%
    11:00 +31°C° 0 mm 9 mps 764 mmHg 44%
    12:00 +32°C° 0 mm 9 mps 764 mmHg 40%
    13:00 +32°C° 0 mm 9 mps 763 mmHg 41%
    14:00 +32°C° 0 mm 9 mps 762 mmHg 41%
    15:00 +32°C° 0 mm 9 mps 762 mmHg 42%
    16:00 +31°C° 0 mm 8 mps 762 mmHg 45%
    17:00 +29°C° 0 mm 8 mps 762 mmHg 49%
    18:00 +28°C° 0 mm 7 mps 763 mmHg 52%
    19:00 +27°C° 0 mm 7 mps 763 mmHg 53%
    20:00 +27°C° 0 mm 7 mps 763 mmHg 55%
    21:00 +27°C° 0 mm 7 mps 764 mmHg 56%
    22:00 +27°C° 0 mm 7 mps 764 mmHg 58%
    23:00 +26°C° 0 mm 6 mps 764 mmHg 59%

    22 December, Friday

    Time Temperature Precipitation Wind Pressure Humidity
    00:00 +26°C° 0 mm 6 mps 763 mmHg 61%
    01:00 +26°C° 0 mm 6 mps 763 mmHg 62%
    02:00 +24°C° 0 mm 6 mps 763 mmHg 63%
    03:00 +24°C° 0 mm 6 mps 763 mmHg 64%
    04:00 +24°C° 0 mm 6 mps 763 mmHg 65%
    05:00 +24°C° 0 mm 6 mps 763 mmHg 66%
    06:00 +23°C° 0 mm 6 mps 764 mmHg 67%
    07:00 +26°C° 0 mm 7 mps 764 mmHg 61%
    08:00 +27°C° 0 mm 7 mps 764 mmHg 56%
    09:00 +28°C° 0 mm 8 mps 765 mmHg 50%
    10:00 +29°C° 0 mm 8 mps 764 mmHg 46%
    11:00 +31°C° 0 mm 9 mps 763 mmHg 43%
    12:00 +32°C° 0 mm 9 mps 763 mmHg 39%
    13:00 +32°C° 0 mm 9 mps 762 mmHg 39%
    14:00 +32°C° 0 mm 9 mps 761 mmHg 39%
    15:00 +32°C° 0 mm 9 mps 760 mmHg 39%
    16:00 +31°C° 0 mm 8 mps 761 mmHg 42%
    17:00 +29°C° 0 mm 8 mps 761 mmHg 46%
    18:00 +28°C° 0 mm 8 mps 761 mmHg 49%
    19:00 +28°C° 0 mm 7 mps 761 mmHg 51%
    20:00 +27°C° 0 mm 7 mps 762 mmHg 54%
    21:00 +27°C° 0 mm 7 mps 762 mmHg 56%
    22:00 +26°C° 0 mm 7 mps 762 mmHg 57%
    23:00 +26°C° 0 mm 7 mps 762 mmHg 59%
    Show more

    XHprof extension not loaded